AXM27 WMKK-VOTR

Flight info

Callsign AXM27
Flight time 3h 13m
Altitude 38000
Route PUGER1F PUGER R461 ISVUR N563 ADKIT T3 TTR
Aircraft A20N/M-SDE2E3FGHIRWXY/LB1

Departure

Time 2026-04-14 08:37
Airport Kuala Lumpur International Airport (WMKK)

Arrival

Time 2026-04-14 11:51
Airport Tiruchirappalli International Airport (VOTR)
Time Latitude Longitude Altitude Speed Heading
2026-04-14 08:18 2.73856 101.68607 42 ft 0 kts 146°
2026-04-14 08:24 2.73867 101.68599 40 ft 3 kts 146°
2026-04-14 08:25 2.73884 101.68588 39 ft 3 kts 146°
2026-04-14 08:25 2.73901 101.68577 40 ft 3 kts 150°
2026-04-14 08:25 2.73919 101.68568 41 ft 3 kts 170°
2026-04-14 08:25 2.73937 101.68568 40 ft 3 kts 219°
2026-04-14 08:26 2.73944 101.68576 38 ft 2 kts 236°
2026-04-14 08:26 2.73953 101.68589 39 ft 1 kts 236°
2026-04-14 08:26 2.73954 101.68590 41 ft 1 kts 236°
2026-04-14 08:29 2.73953 101.68589 39 ft 1 kts 235°
2026-04-14 08:29 2.73937 101.68568 40 ft 7 kts 231°
2026-04-14 08:29 2.73893 101.68505 40 ft 15 kts 236°
2026-04-14 08:29 2.73821 101.68400 40 ft 21 kts 236°
2026-04-14 08:30 2.73734 101.68271 41 ft 24 kts 236°
2026-04-14 08:30 2.73668 101.68189 39 ft 14 kts 195°
2026-04-14 08:30 2.73591 101.68240 39 ft 15 kts 148°
2026-04-14 08:30 2.73498 101.68299 39 ft 17 kts 147°
2026-04-14 08:31 2.73397 101.68371 39 ft 19 kts 146°
2026-04-14 08:31 2.73161 101.68531 40 ft 22 kts 145°
2026-04-14 08:31 2.73028 101.68619 40 ft 24 kts 146°
2026-04-14 08:32 2.72889 101.68713 39 ft 25 kts 146°
2026-04-14 08:32 2.72743 101.68815 39 ft 26 kts 144°
2026-04-14 08:32 2.72588 101.68918 39 ft 27 kts 152°
2026-04-14 08:32 2.72432 101.69019 39 ft 28 kts 148°
2026-04-14 08:33 2.72271 101.69128 40 ft 28 kts 147°
2026-04-14 08:33 2.72106 101.69239 40 ft 29 kts 146°
2026-04-14 08:33 2.71936 101.69348 40 ft 29 kts 138°
2026-04-14 08:33 2.71815 101.69380 38 ft 16 kts 220°
2026-04-14 08:34 2.71748 101.69354 39 ft 10 kts 139°
2026-04-14 08:34 2.71679 101.69399 38 ft 14 kts 147°
2026-04-14 08:34 2.71582 101.69463 38 ft 20 kts 145°
2026-04-14 08:34 2.71448 101.69554 38 ft 26 kts 147°
2026-04-14 08:35 2.71279 101.69667 38 ft 32 kts 146°
2026-04-14 08:35 2.71084 101.69799 39 ft 36 kts 146°
2026-04-14 08:35 2.70959 101.69863 37 ft 16 kts 187°
2026-04-14 08:35 2.70884 101.69757 39 ft 22 kts 265°
2026-04-14 08:36 2.70912 101.69703 38 ft 0 kts 323°
2026-04-14 08:36 2.70957 101.69672 38 ft 32 kts 326°
2026-04-14 08:36 2.71344 101.69415 38 ft 98 kts 326°
2026-04-14 08:36 2.72058 101.68934 38 ft 147 kts 326°
2026-04-14 08:37 2.72980 101.68299 232 ft 169 kts 327°
2026-04-14 08:37 2.73950 101.67589 646 ft 177 kts 326°
2026-04-14 08:37 2.74739 101.66667 1138 ft 178 kts 285°
2026-04-14 08:37 2.74980 101.65400 1489 ft 192 kts 280°
2026-04-14 08:38 2.75242 101.64003 1785 ft 215 kts 281°
2026-04-14 08:38 2.75496 101.62462 2177 ft 235 kts 278°
2026-04-14 08:38 2.75711 101.60795 2521 ft 255 kts 277°
2026-04-14 08:38 2.75930 101.58981 2956 ft 269 kts 277°
2026-04-14 08:39 2.76168 101.57084 3419 ft 280 kts 279°
2026-04-14 08:39 2.76631 101.55149 3765 ft 295 kts 289°
2026-04-14 08:39 2.77436 101.53189 3946 ft 314 kts 294°
2026-04-14 08:39 2.78336 101.51149 4247 ft 325 kts 294°
2026-04-14 08:40 2.79245 101.49066 4777 ft 328 kts 294°
2026-04-14 08:40 2.80158 101.46966 5254 ft 332 kts 294°
2026-04-14 08:40 2.81084 101.44828 6120 ft 335 kts 293°
2026-04-14 08:40 2.82015 101.42678 6957 ft 339 kts 293°
2026-04-14 08:41 2.82960 101.40497 7673 ft 344 kts 293°
2026-04-14 08:41 2.83973 101.38304 8379 ft 349 kts 298°
2026-04-14 08:41 2.85301 101.36260 9133 ft 353 kts 307°
2026-04-14 08:41 2.86957 101.34419 9799 ft 360 kts 315°
2026-04-14 08:42 2.88739 101.32656 10521 ft 361 kts 315°
2026-04-14 08:42 2.90530 101.30873 11186 ft 365 kts 315°
2026-04-14 08:42 2.92335 101.29072 11881 ft 368 kts 315°
2026-04-14 08:42 2.94159 101.27248 12539 ft 373 kts 315°
2026-04-14 08:43 2.96001 101.25403 13189 ft 377 kts 315°
2026-04-14 08:43 2.97863 101.23539 13818 ft 380 kts 315°
2026-04-14 08:43 2.99746 101.21654 14372 ft 384 kts 314°
2026-04-14 08:43 3.01646 101.19754 14916 ft 388 kts 314°
2026-04-14 08:44 3.03564 101.17835 15484 ft 391 kts 314°
2026-04-14 08:44 3.05494 101.15903 16031 ft 395 kts 314°
2026-04-14 08:44 3.07444 101.13950 16561 ft 398 kts 314°
2026-04-14 08:44 3.09411 101.11980 17092 ft 402 kts 314°
2026-04-14 08:45 3.11396 101.09992 17613 ft 405 kts 314°
2026-04-14 08:45 3.13400 101.07986 18123 ft 409 kts 314°
2026-04-14 08:45 3.15419 101.05965 18577 ft 412 kts 314°
2026-04-14 08:45 3.17448 101.03933 19039 ft 414 kts 314°
2026-04-14 08:46 3.19465 101.01913 19485 ft 417 kts 314°
2026-04-14 08:46 3.21465 100.99800 19927 ft 419 kts 308°
2026-04-14 08:46 3.23074 100.97370 20362 ft 420 kts 296°
2026-04-14 08:46 3.24182 100.94670 20796 ft 421 kts 285°
2026-04-14 08:47 3.24885 100.91822 21229 ft 423 kts 282°
2026-04-14 08:47 3.25571 100.88948 21664 ft 426 kts 282°
2026-04-14 08:47 3.26265 100.86060 22097 ft 429 kts 282°
2026-04-14 08:47 3.26968 100.83146 22525 ft 431 kts 282°
2026-04-14 08:48 3.27675 100.80217 22943 ft 434 kts 282°
2026-04-14 08:48 3.28386 100.77273 23357 ft 437 kts 282°
2026-04-14 08:48 3.29101 100.74313 23721 ft 439 kts 282°
2026-04-14 08:48 3.29820 100.71330 24054 ft 442 kts 282°
2026-04-14 08:49 3.30543 100.68336 24390 ft 444 kts 282°
2026-04-14 08:49 3.31270 100.65322 24715 ft 446 kts 282°
2026-04-14 08:49 3.31999 100.62295 25039 ft 449 kts 282°
2026-04-14 08:49 3.32733 100.59251 25357 ft 451 kts 282°
2026-04-14 08:50 3.33471 100.56192 25693 ft 452 kts 282°
2026-04-14 08:50 3.34205 100.53147 26124 ft 451 kts 282°
2026-04-14 08:50 3.34934 100.50119 26360 ft 454 kts 282°
2026-04-14 08:50 3.35676 100.47043 26627 ft 457 kts 282°
2026-04-14 08:51 3.36424 100.43940 26894 ft 459 kts 282°
2026-04-14 08:51 3.37174 100.40823 27148 ft 461 kts 282°
2026-04-14 08:51 3.37930 100.37687 27316 ft 466 kts 282°
2026-04-14 08:51 3.38695 100.34508 27378 ft 473 kts 282°
2026-04-14 08:52 3.39467 100.31279 27443 ft 479 kts 281°
2026-04-14 08:52 3.40022 100.27982 27503 ft 484 kts 275°
2026-04-14 08:52 3.40267 100.24606 27567 ft 488 kts 272°
2026-04-14 08:52 3.40473 100.21198 27637 ft 493 kts 272°
2026-04-14 08:53 3.40687 100.17771 27813 ft 494 kts 272°
2026-04-14 08:53 3.40904 100.14337 27976 ft 495 kts 272°
2026-04-14 08:53 3.41122 100.10896 28110 ft 496 kts 272°
2026-04-14 08:53 3.41340 100.07448 28233 ft 497 kts 272°
2026-04-14 08:54 3.41558 100.03989 28346 ft 498 kts 272°
2026-04-14 08:54 3.41776 100.00526 28440 ft 499 kts 272°
2026-04-14 08:54 3.42211 99.93581 28621 ft 501 kts 272°
2026-04-14 08:55 3.42647 99.86625 28766 ft 502 kts 272°
2026-04-14 08:55 3.43079 99.79700 28923 ft 502 kts 273°
2026-04-14 08:56 3.43515 99.72727 29092 ft 502 kts 273°
2026-04-14 08:56 3.43951 99.65757 29262 ft 502 kts 273°
2026-04-14 08:57 3.44384 99.58793 29440 ft 502 kts 273°
2026-04-14 08:57 3.44819 99.51820 29632 ft 502 kts 273°
2026-04-14 08:58 3.45036 99.48337 29735 ft 502 kts 273°
2026-04-14 08:58 3.45252 99.44856 29844 ft 501 kts 273°
2026-04-14 08:58 3.45469 99.41374 29962 ft 501 kts 273°
2026-04-14 08:58 3.45685 99.37895 30061 ft 501 kts 273°
2026-04-14 08:59 3.45901 99.34419 30238 ft 498 kts 273°
2026-04-14 08:59 3.46115 99.30977 30542 ft 494 kts 273°
2026-04-14 08:59 3.46327 99.27542 30759 ft 493 kts 273°
2026-04-14 08:59 3.46539 99.24116 30965 ft 493 kts 273°
2026-04-14 09:00 3.46751 99.20694 31172 ft 492 kts 273°
2026-04-14 09:00 3.46963 99.17273 31353 ft 492 kts 273°
2026-04-14 09:00 3.47175 99.13852 31530 ft 492 kts 273°
2026-04-14 09:00 3.47386 99.10437 31739 ft 492 kts 273°
2026-04-14 09:01 3.47597 99.07022 31930 ft 491 kts 273°
2026-04-14 09:01 3.47806 99.03647 32079 ft 492 kts 273°
2026-04-14 09:01 3.48016 99.00234 32200 ft 492 kts 273°
2026-04-14 09:01 3.48227 98.96818 32375 ft 491 kts 273°
2026-04-14 09:02 3.48437 98.93408 32544 ft 490 kts 273°
2026-04-14 09:02 3.48647 98.90001 32671 ft 490 kts 273°
2026-04-14 09:02 3.48857 98.86590 32796 ft 491 kts 273°
2026-04-14 09:02 3.49067 98.83176 32946 ft 490 kts 273°
2026-04-14 09:03 3.49276 98.79779 33118 ft 489 kts 273°
2026-04-14 09:03 3.49485 98.76376 33233 ft 489 kts 273°
2026-04-14 09:03 3.49903 98.69572 33420 ft 491 kts 273°
2026-04-14 09:04 3.50560 98.62755 33590 ft 493 kts 281°
2026-04-14 09:04 3.51375 98.59422 33723 ft 492 kts 287°
2026-04-14 09:04 3.52539 98.56198 33750 ft 494 kts 294°
2026-04-14 09:05 3.53967 98.53075 33905 ft 493 kts 295°
2026-04-14 09:05 3.55393 98.49968 34094 ft 490 kts 295°
2026-04-14 09:05 3.58225 98.43754 34351 ft 489 kts 295°
2026-04-14 09:06 3.61053 98.37553 34534 ft 490 kts 295°
2026-04-14 09:06 3.63868 98.31387 34706 ft 491 kts 295°
2026-04-14 09:07 3.66708 98.25165 34830 ft 492 kts 295°
2026-04-14 09:07 3.69542 98.18954 35135 ft 490 kts 295°
2026-04-14 09:08 3.72369 98.12760 35396 ft 488 kts 295°
2026-04-14 09:08 3.74731 98.07581 35540 ft 489 kts 295°
2026-04-14 09:09 3.77533 98.01435 35803 ft 488 kts 295°
2026-04-14 09:09 3.80351 97.95257 36054 ft 487 kts 294°
2026-04-14 09:10 3.81757 97.92173 36168 ft 486 kts 294°
2026-04-14 09:10 3.83162 97.89090 36322 ft 486 kts 294°
2026-04-14 09:10 3.84565 97.86012 36425 ft 486 kts 294°
2026-04-14 09:10 3.85969 97.82930 36568 ft 486 kts 294°
2026-04-14 09:11 3.87369 97.79856 36715 ft 485 kts 295°
2026-04-14 09:11 3.88769 97.76784 36853 ft 485 kts 295°
2026-04-14 09:11 3.90172 97.73703 37003 ft 485 kts 295°
2026-04-14 09:11 3.91570 97.70633 37137 ft 484 kts 295°
2026-04-14 09:12 3.92969 97.67562 37262 ft 484 kts 295°
2026-04-14 09:12 3.94365 97.64496 37393 ft 484 kts 295°
2026-04-14 09:12 3.95760 97.61432 37520 ft 483 kts 295°
2026-04-14 09:12 3.97156 97.58367 37651 ft 483 kts 295°
2026-04-14 09:13 3.99940 97.52249 37731 ft 486 kts 295°
2026-04-14 09:13 4.01360 97.49129 37848 ft 486 kts 294°
2026-04-14 09:13 4.02744 97.46087 37952 ft 486 kts 295°
2026-04-14 09:14 4.05546 97.39928 37984 ft 485 kts 295°
2026-04-14 09:14 4.08345 97.33775 37988 ft 485 kts 295°
2026-04-14 09:15 4.11146 97.27617 37979 ft 486 kts 295°
2026-04-14 09:15 4.13946 97.21458 37980 ft 486 kts 295°
2026-04-14 09:16 4.16743 97.15303 37977 ft 486 kts 295°
2026-04-14 09:16 4.19542 97.09145 37976 ft 486 kts 295°
2026-04-14 09:17 4.22339 97.02987 37974 ft 486 kts 295°
2026-04-14 09:17 4.25134 96.96833 37963 ft 485 kts 295°
2026-04-14 09:18 4.27928 96.90681 37964 ft 486 kts 295°
2026-04-14 09:18 4.30725 96.84520 37963 ft 485 kts 295°
2026-04-14 09:19 4.33515 96.78372 37951 ft 485 kts 295°
2026-04-14 09:19 4.36304 96.72224 37951 ft 485 kts 295°
2026-04-14 09:20 4.39097 96.66068 37933 ft 485 kts 295°
2026-04-14 09:20 4.41869 96.59956 37948 ft 485 kts 295°
2026-04-14 09:21 4.44660 96.53800 37926 ft 485 kts 295°
2026-04-14 09:21 4.47448 96.47648 37924 ft 485 kts 294°
2026-04-14 09:22 4.50234 96.41500 37926 ft 484 kts 295°
2026-04-14 09:22 4.53015 96.35361 37902 ft 484 kts 295°
2026-04-14 09:23 4.55800 96.29211 37918 ft 486 kts 295°
2026-04-14 09:23 4.58606 96.23014 37897 ft 489 kts 295°
2026-04-14 09:24 4.61414 96.16814 37896 ft 488 kts 295°
2026-04-14 09:24 4.64219 96.10614 37900 ft 488 kts 295°
2026-04-14 09:25 4.67019 96.04427 37885 ft 486 kts 294°
2026-04-14 09:25 4.69810 95.98255 37880 ft 486 kts 294°
2026-04-14 09:26 4.72603 95.92078 37888 ft 486 kts 295°
2026-04-14 09:26 4.75396 95.85899 37888 ft 486 kts 294°
2026-04-14 09:27 4.78188 95.79722 37890 ft 486 kts 294°
2026-04-14 09:27 4.80979 95.73544 37880 ft 486 kts 294°
2026-04-14 09:28 4.83776 95.67353 37878 ft 490 kts 294°
2026-04-14 09:28 4.86586 95.61130 37888 ft 489 kts 294°
2026-04-14 09:29 4.89392 95.54914 37883 ft 489 kts 294°
2026-04-14 09:29 4.92197 95.48698 37883 ft 489 kts 294°
2026-04-14 09:30 4.94969 95.42550 37873 ft 484 kts 294°
2026-04-14 09:30 4.97745 95.36397 37876 ft 486 kts 294°
2026-04-14 09:31 5.00526 95.30231 37866 ft 486 kts 294°
2026-04-14 09:31 5.03314 95.24045 37871 ft 486 kts 294°
2026-04-14 09:32 5.06099 95.17865 37864 ft 486 kts 294°
2026-04-14 09:33 5.10276 95.08590 37860 ft 487 kts 294°
2026-04-14 09:33 5.13061 95.02408 37854 ft 486 kts 294°
2026-04-14 09:34 5.15846 94.96221 37863 ft 487 kts 294°
2026-04-14 09:34 5.18640 94.90014 37863 ft 491 kts 294°
2026-04-14 09:35 5.21454 94.83758 37854 ft 492 kts 294°
2026-04-14 09:35 5.24266 94.77504 37859 ft 492 kts 294°
2026-04-14 09:36 5.27075 94.71258 37871 ft 491 kts 294°
2026-04-14 09:36 5.29891 94.64992 37862 ft 492 kts 294°
2026-04-14 09:37 5.32695 94.58747 37863 ft 487 kts 294°
2026-04-14 09:37 5.35457 94.52598 37862 ft 489 kts 294°
2026-04-14 09:38 5.38255 94.46370 37862 ft 489 kts 294°
2026-04-14 09:38 5.41048 94.40150 37862 ft 489 kts 294°
2026-04-14 09:39 5.43839 94.33930 37864 ft 489 kts 294°
2026-04-14 09:39 5.46633 94.27701 37864 ft 489 kts 294°
2026-04-14 09:40 5.49426 94.21474 37862 ft 489 kts 294°
2026-04-14 09:40 5.52222 94.15238 37862 ft 491 kts 294°
2026-04-14 09:41 5.55024 94.08987 37863 ft 490 kts 294°
2026-04-14 09:41 5.57818 94.02749 37866 ft 490 kts 294°
2026-04-14 09:42 5.60598 93.96543 37862 ft 490 kts 294°
2026-04-14 09:42 5.63395 93.90296 37862 ft 490 kts 294°
2026-04-14 09:43 5.66190 93.84052 37870 ft 490 kts 294°
2026-04-14 09:43 5.68975 93.77824 37864 ft 483 kts 294°
2026-04-14 09:44 5.71729 93.71671 37864 ft 486 kts 294°
2026-04-14 09:44 5.74518 93.65433 37864 ft 493 kts 294°
2026-04-14 09:45 5.77334 93.59133 37868 ft 495 kts 294°
2026-04-14 09:45 5.80147 93.52836 37864 ft 494 kts 294°
2026-04-14 09:46 5.82961 93.46536 37864 ft 494 kts 294°
2026-04-14 09:46 5.85774 93.40235 37867 ft 494 kts 294°
2026-04-14 09:47 5.88585 93.33938 37864 ft 494 kts 294°
2026-04-14 09:47 5.91400 93.27630 37861 ft 494 kts 294°
2026-04-14 09:48 5.94210 93.21331 37862 ft 494 kts 294°
2026-04-14 09:48 5.97022 93.15028 37862 ft 494 kts 294°
2026-04-14 09:49 5.99834 93.08721 37861 ft 495 kts 294°
2026-04-14 09:49 6.02672 93.02443 37863 ft 489 kts 295°
2026-04-14 09:50 6.05481 92.96307 37865 ft 488 kts 295°
2026-04-14 09:50 6.08316 92.90102 37861 ft 488 kts 295°
2026-04-14 09:51 6.11156 92.83875 37862 ft 491 kts 294°
2026-04-14 09:51 6.13996 92.77639 37863 ft 490 kts 294°
2026-04-14 09:52 6.16834 92.71406 37860 ft 490 kts 294°
2026-04-14 09:52 6.19669 92.65175 37859 ft 487 kts 295°
2026-04-14 09:53 6.22471 92.59016 37864 ft 485 kts 295°
2026-04-14 09:53 6.25279 92.52845 37863 ft 486 kts 295°
2026-04-14 09:54 6.28067 92.46713 37861 ft 485 kts 295°
2026-04-14 09:54 6.30872 92.40542 37861 ft 485 kts 295°
2026-04-14 09:55 6.33678 92.34367 37861 ft 485 kts 295°
2026-04-14 09:55 6.36481 92.28193 37858 ft 485 kts 295°
2026-04-14 09:56 6.38793 92.23099 37856 ft 481 kts 295°
2026-04-14 09:56 6.41574 92.16972 37855 ft 482 kts 295°
2026-04-14 09:57 6.44356 92.10840 37855 ft 482 kts 295°
2026-04-14 09:57 6.47137 92.04708 37857 ft 481 kts 295°
2026-04-14 09:58 6.49910 91.98592 37856 ft 481 kts 295°
2026-04-14 09:58 6.52690 91.92458 37858 ft 481 kts 295°
2026-04-14 09:59 6.55458 91.86346 37859 ft 479 kts 295°
2026-04-14 09:59 6.58223 91.80240 37857 ft 480 kts 295°
2026-04-14 10:00 6.60991 91.74126 37855 ft 480 kts 295°
2026-04-14 10:00 6.63756 91.68016 37858 ft 480 kts 295°
2026-04-14 10:01 6.66505 91.61939 37859 ft 480 kts 295°
2026-04-14 10:01 6.69268 91.55829 37855 ft 480 kts 295°
2026-04-14 10:02 6.72028 91.49722 37857 ft 478 kts 295°
2026-04-14 10:02 6.74776 91.43640 37858 ft 478 kts 295°
2026-04-14 10:03 6.77526 91.37552 37859 ft 478 kts 295°
2026-04-14 10:03 6.80275 91.31463 37854 ft 478 kts 295°
2026-04-14 10:04 6.83024 91.25371 37855 ft 478 kts 295°
2026-04-14 10:04 6.85771 91.19283 37856 ft 477 kts 295°
2026-04-14 10:05 6.88512 91.13204 37854 ft 477 kts 295°
2026-04-14 10:05 6.91254 91.07119 37856 ft 477 kts 295°
2026-04-14 10:06 6.93995 91.01036 37854 ft 477 kts 295°
2026-04-14 10:06 6.96735 90.94953 37858 ft 477 kts 295°
2026-04-14 10:07 6.99476 90.88864 37857 ft 477 kts 295°
2026-04-14 10:07 7.02196 90.82821 37857 ft 477 kts 295°
2026-04-14 10:08 7.04934 90.76736 37856 ft 477 kts 295°
2026-04-14 10:08 7.07670 90.70650 37855 ft 477 kts 295°
2026-04-14 10:09 7.10408 90.64560 37858 ft 477 kts 295°
2026-04-14 10:09 7.13142 90.58474 37855 ft 477 kts 295°
2026-04-14 10:10 7.15878 90.52382 37855 ft 477 kts 295°
2026-04-14 10:10 7.18612 90.46293 37855 ft 477 kts 295°
2026-04-14 10:11 7.21346 90.40201 37858 ft 477 kts 295°
2026-04-14 10:11 7.24071 90.34127 37855 ft 474 kts 295°
2026-04-14 10:12 7.26771 90.28103 37855 ft 475 kts 295°
2026-04-14 10:12 7.29488 90.22041 37856 ft 475 kts 295°
2026-04-14 10:13 7.32207 90.15972 37857 ft 475 kts 295°
2026-04-14 10:13 7.34924 90.09905 37854 ft 475 kts 295°
2026-04-14 10:14 7.37640 90.03837 37855 ft 475 kts 295°
2026-04-14 10:14 7.40355 89.97770 37851 ft 475 kts 295°
2026-04-14 10:15 7.43067 89.91706 37857 ft 475 kts 295°
2026-04-14 10:15 7.45779 89.85640 37856 ft 475 kts 295°
2026-04-14 10:16 7.48494 89.79564 37857 ft 475 kts 295°
2026-04-14 10:16 7.51204 89.73498 37856 ft 475 kts 295°
2026-04-14 10:17 7.53914 89.67428 37857 ft 475 kts 295°
2026-04-14 10:17 7.56604 89.61401 37857 ft 475 kts 295°
2026-04-14 10:18 7.60664 89.52300 37855 ft 474 kts 295°
2026-04-14 10:18 7.63363 89.46246 37856 ft 474 kts 295°
2026-04-14 10:19 7.66064 89.40188 37857 ft 473 kts 295°
2026-04-14 10:19 7.68762 89.34132 37858 ft 474 kts 295°
2026-04-14 10:20 7.71487 89.28086 37856 ft 474 kts 295°
2026-04-14 10:20 7.74252 89.22054 37855 ft 473 kts 296°
2026-04-14 10:21 7.77008 89.16032 37857 ft 473 kts 295°
2026-04-14 10:21 7.79759 89.10005 37857 ft 473 kts 295°
2026-04-14 10:22 7.82509 89.03975 37856 ft 473 kts 295°
2026-04-14 10:22 7.85258 88.97945 37855 ft 473 kts 295°
2026-04-14 10:23 7.88008 88.91909 37855 ft 473 kts 295°
2026-04-14 10:23 7.90755 88.85877 37855 ft 473 kts 295°
2026-04-14 10:24 7.93478 88.79892 37856 ft 472 kts 296°
2026-04-14 10:24 7.96219 88.73870 37857 ft 472 kts 296°
2026-04-14 10:25 7.98960 88.67844 37857 ft 472 kts 296°
2026-04-14 10:25 8.01698 88.61820 37857 ft 472 kts 296°
2026-04-14 10:26 8.04436 88.55794 37855 ft 472 kts 296°
2026-04-14 10:26 8.07173 88.49768 37858 ft 472 kts 296°
2026-04-14 10:27 8.09908 88.43743 37856 ft 471 kts 296°
2026-04-14 10:27 8.12639 88.37725 37856 ft 472 kts 296°
2026-04-14 10:28 8.15368 88.31708 37858 ft 472 kts 296°
2026-04-14 10:28 8.18098 88.25685 37856 ft 471 kts 296°
2026-04-14 10:29 8.20825 88.19668 37857 ft 472 kts 296°
2026-04-14 10:29 8.23553 88.13646 37856 ft 471 kts 296°
2026-04-14 10:30 8.26279 88.07622 37857 ft 472 kts 296°
2026-04-14 10:30 8.29004 88.01601 37855 ft 472 kts 296°
2026-04-14 10:31 8.31731 87.95572 37857 ft 472 kts 296°
2026-04-14 10:31 8.34453 87.89552 37855 ft 470 kts 296°
2026-04-14 10:32 8.37151 87.83578 37857 ft 467 kts 296°
2026-04-14 10:32 8.39852 87.77600 37855 ft 468 kts 296°
2026-04-14 10:33 8.42532 87.71662 37855 ft 468 kts 296°
2026-04-14 10:33 8.45224 87.65696 37855 ft 466 kts 296°
2026-04-14 10:34 8.49255 87.56757 37855 ft 466 kts 296°
2026-04-14 10:35 8.51945 87.50789 37856 ft 466 kts 296°
2026-04-14 10:35 8.54632 87.44824 37857 ft 466 kts 296°
2026-04-14 10:36 8.57317 87.38861 37856 ft 466 kts 296°
2026-04-14 10:36 8.60003 87.32893 37858 ft 466 kts 296°
2026-04-14 10:37 8.62682 87.26935 37857 ft 465 kts 296°
2026-04-14 10:37 8.65360 87.20979 37856 ft 466 kts 296°
2026-04-14 10:38 8.68037 87.15022 37857 ft 466 kts 296°
2026-04-14 10:38 8.70714 87.09061 37853 ft 466 kts 296°
2026-04-14 10:39 8.73376 87.03133 37857 ft 466 kts 296°
2026-04-14 10:39 8.76072 86.97124 37856 ft 466 kts 296°
2026-04-14 10:40 8.78733 86.91192 37858 ft 467 kts 295°
2026-04-14 10:40 8.81414 86.85210 37856 ft 466 kts 295°
2026-04-14 10:41 8.84091 86.79235 37858 ft 467 kts 295°
2026-04-14 10:41 8.86767 86.73260 37857 ft 466 kts 295°
2026-04-14 10:42 8.89443 86.67282 37858 ft 466 kts 295°
2026-04-14 10:42 8.92118 86.61302 37856 ft 466 kts 295°
2026-04-14 10:43 8.94792 86.55322 37855 ft 466 kts 295°
2026-04-14 10:43 8.97455 86.49365 37856 ft 465 kts 295°
2026-04-14 10:44 8.99666 86.44413 37856 ft 465 kts 295°
2026-04-14 10:44 9.02776 86.37448 37857 ft 465 kts 295°
2026-04-14 10:45 9.05422 86.31519 37857 ft 465 kts 295°
2026-04-14 10:45 9.07650 86.26525 37855 ft 464 kts 295°
2026-04-14 10:46 9.10286 86.20614 37855 ft 464 kts 295°
2026-04-14 10:46 9.12940 86.14659 37856 ft 465 kts 295°
2026-04-14 10:47 9.15596 86.08695 37855 ft 465 kts 295°
2026-04-14 10:47 9.18253 86.02725 37855 ft 465 kts 295°
2026-04-14 10:48 9.20908 85.96758 37856 ft 465 kts 295°
2026-04-14 10:48 9.23563 85.90791 37859 ft 465 kts 295°
2026-04-14 10:49 9.26230 85.84826 37852 ft 465 kts 295°
2026-04-14 10:49 9.28986 85.78905 37854 ft 465 kts 296°
2026-04-14 10:50 9.31748 85.72986 37860 ft 465 kts 296°
2026-04-14 10:50 9.34500 85.67060 37853 ft 465 kts 296°
2026-04-14 10:51 9.37246 85.61133 37857 ft 465 kts 296°
2026-04-14 10:51 9.39994 85.55199 37857 ft 465 kts 296°
2026-04-14 10:52 9.42740 85.49266 37855 ft 465 kts 296°
2026-04-14 10:52 9.45485 85.43335 37857 ft 465 kts 295°
2026-04-14 10:53 9.48228 85.37403 37859 ft 465 kts 295°
2026-04-14 10:53 9.50949 85.31513 37859 ft 465 kts 295°
2026-04-14 10:54 9.53691 85.25577 37853 ft 465 kts 295°
2026-04-14 10:54 9.56430 85.19644 37854 ft 465 kts 295°
2026-04-14 10:55 9.59168 85.13710 37854 ft 465 kts 295°
2026-04-14 10:55 9.61907 85.07772 37855 ft 465 kts 295°
2026-04-14 10:56 9.64645 85.01832 37854 ft 465 kts 295°
2026-04-14 10:56 9.67381 84.95892 37854 ft 465 kts 295°
2026-04-14 10:57 9.70116 84.89952 37854 ft 465 kts 295°
2026-04-14 10:57 9.72850 84.84010 37852 ft 465 kts 295°
2026-04-14 10:58 9.75566 84.78106 37855 ft 465 kts 295°
2026-04-14 10:58 9.78298 84.72163 37850 ft 465 kts 295°
2026-04-14 10:59 9.81024 84.66230 37855 ft 462 kts 295°
2026-04-14 10:59 9.83747 84.60301 37853 ft 465 kts 295°
2026-04-14 11:00 9.86471 84.54364 37850 ft 464 kts 295°
2026-04-14 11:00 9.89192 84.48432 37855 ft 464 kts 295°
2026-04-14 11:01 9.91913 84.42496 37854 ft 464 kts 295°
2026-04-14 11:01 9.94638 84.36550 37851 ft 464 kts 295°
2026-04-14 11:02 9.97358 84.30610 37852 ft 464 kts 295°
2026-04-14 11:02 10.00080 84.24662 37853 ft 465 kts 295°
2026-04-14 11:03 10.02800 84.18717 37855 ft 464 kts 295°
2026-04-14 11:03 10.05498 84.12816 37852 ft 463 kts 295°
2026-04-14 11:04 10.08230 84.06836 37847 ft 465 kts 295°
2026-04-14 11:04 10.10945 84.00892 37849 ft 464 kts 295°
2026-04-14 11:05 10.13642 83.94982 37844 ft 464 kts 295°
2026-04-14 11:05 10.16355 83.89034 37851 ft 465 kts 295°
2026-04-14 11:06 10.19075 83.83066 37851 ft 465 kts 295°
2026-04-14 11:06 10.21792 83.77104 37846 ft 465 kts 295°
2026-04-14 11:07 10.24509 83.71139 37848 ft 465 kts 295°
2026-04-14 11:07 10.27223 83.65175 37847 ft 465 kts 295°
2026-04-14 11:08 10.29936 83.59210 37848 ft 465 kts 295°
2026-04-14 11:08 10.32649 83.53243 37847 ft 465 kts 295°
2026-04-14 11:09 10.35359 83.47277 37847 ft 466 kts 295°
2026-04-14 11:09 10.38072 83.41302 37850 ft 465 kts 295°
2026-04-14 11:10 10.42134 83.32350 37846 ft 465 kts 295°
2026-04-14 11:10 10.44839 83.26383 37845 ft 466 kts 295°
2026-04-14 11:11 10.47546 83.20409 37847 ft 465 kts 295°
2026-04-14 11:11 10.50252 83.14434 37846 ft 465 kts 295°
2026-04-14 11:12 10.52957 83.08458 37845 ft 465 kts 295°
2026-04-14 11:12 10.55660 83.02483 37847 ft 465 kts 295°
2026-04-14 11:13 10.58363 82.96502 37842 ft 466 kts 295°
2026-04-14 11:13 10.61048 82.90510 37841 ft 466 kts 292°
2026-04-14 11:14 10.62922 82.84211 37842 ft 467 kts 281°
2026-04-14 11:14 10.63577 82.77646 37843 ft 468 kts 272°
2026-04-14 11:15 10.63814 82.71060 37839 ft 469 kts 273°
2026-04-14 11:15 10.64068 82.64433 37846 ft 469 kts 273°
2026-04-14 11:16 10.64315 82.57804 37839 ft 469 kts 273°
2026-04-14 11:16 10.64559 82.51181 37841 ft 469 kts 273°
2026-04-14 11:17 10.64801 82.44555 37845 ft 469 kts 273°
2026-04-14 11:17 10.65042 82.37927 37835 ft 469 kts 273°
2026-04-14 11:18 10.65282 82.31295 37839 ft 469 kts 273°
2026-04-14 11:18 10.65520 82.24667 37839 ft 469 kts 273°
2026-04-14 11:19 10.65756 82.18086 37840 ft 469 kts 273°
2026-04-14 11:19 10.65991 82.11463 37840 ft 469 kts 273°
2026-04-14 11:20 10.66225 82.04835 37840 ft 469 kts 272°
2026-04-14 11:20 10.66457 81.98206 37844 ft 469 kts 273°
2026-04-14 11:21 10.66689 81.91580 37840 ft 469 kts 272°
2026-04-14 11:21 10.66919 81.84952 37836 ft 469 kts 273°
2026-04-14 11:22 10.67147 81.78324 37836 ft 469 kts 272°
2026-04-14 11:22 10.67374 81.71692 37835 ft 469 kts 273°
2026-04-14 11:23 10.67600 81.65063 37838 ft 469 kts 272°
2026-04-14 11:23 10.67824 81.58439 37835 ft 469 kts 272°
2026-04-14 11:24 10.68047 81.51815 37837 ft 469 kts 272°
2026-04-14 11:24 10.68268 81.45193 37836 ft 468 kts 272°
2026-04-14 11:25 10.68486 81.38618 37839 ft 469 kts 272°
2026-04-14 11:25 10.68705 81.31995 37836 ft 469 kts 272°
2026-04-14 11:26 10.68922 81.25378 37833 ft 468 kts 272°
2026-04-14 11:26 10.69138 81.18755 37839 ft 468 kts 272°
2026-04-14 11:27 10.69352 81.12139 37832 ft 468 kts 272°
2026-04-14 11:27 10.69565 81.05520 37833 ft 468 kts 272°
2026-04-14 11:28 10.69777 80.98903 37833 ft 468 kts 272°
2026-04-14 11:28 10.69987 80.92282 37830 ft 468 kts 272°
2026-04-14 11:29 10.70196 80.85669 37831 ft 468 kts 272°
2026-04-14 11:29 10.70403 80.79053 37834 ft 468 kts 272°
2026-04-14 11:30 10.70609 80.72435 37833 ft 468 kts 272°
2026-04-14 11:30 10.70813 80.65819 37468 ft 469 kts 272°
2026-04-14 11:31 10.70915 80.62499 36985 ft 470 kts 272°
2026-04-14 11:31 10.71017 80.59175 36423 ft 471 kts 272°
2026-04-14 11:31 10.71118 80.55840 35815 ft 473 kts 272°
2026-04-14 11:31 10.71220 80.52496 35227 ft 474 kts 272°
2026-04-14 11:32 10.71322 80.49145 34648 ft 475 kts 272°
2026-04-14 11:32 10.71389 80.46915 34271 ft 477 kts 272°
2026-04-14 11:32 10.71524 80.42437 33481 ft 480 kts 273°
2026-04-14 11:32 10.71593 80.40143 33051 ft 481 kts 273°
2026-04-14 11:33 10.71728 80.35627 32225 ft 483 kts 272°
2026-04-14 11:33 10.71798 80.33316 31815 ft 485 kts 272°
2026-04-14 11:33 10.71900 80.29884 31209 ft 487 kts 272°
2026-04-14 11:34 10.72100 80.23071 30074 ft 481 kts 272°
2026-04-14 11:34 10.72233 80.18551 29220 ft 474 kts 272°
2026-04-14 11:34 10.72297 80.16338 28752 ft 471 kts 272°
2026-04-14 11:34 10.72394 80.13016 28017 ft 468 kts 272°
2026-04-14 11:35 10.72491 80.09717 27299 ft 465 kts 272°
2026-04-14 11:35 10.72584 80.06436 26599 ft 462 kts 272°
2026-04-14 11:35 10.72672 80.03179 25917 ft 459 kts 272°
2026-04-14 11:35 10.72758 79.99942 25245 ft 456 kts 272°
2026-04-14 11:36 10.72843 79.96729 24594 ft 453 kts 272°
2026-04-14 11:36 10.72928 79.93534 23958 ft 450 kts 272°
2026-04-14 11:36 10.73013 79.90362 23323 ft 448 kts 271°
2026-04-14 11:36 10.73096 79.87205 22578 ft 445 kts 272°
2026-04-14 11:37 10.73179 79.84070 21850 ft 442 kts 272°
2026-04-14 11:37 10.73261 79.80953 21141 ft 440 kts 272°
2026-04-14 11:37 10.73342 79.77855 20452 ft 437 kts 272°
2026-04-14 11:37 10.73423 79.74773 19775 ft 435 kts 272°
2026-04-14 11:38 10.73502 79.71714 19143 ft 432 kts 272°
2026-04-14 11:38 10.73584 79.68671 18499 ft 430 kts 272°
2026-04-14 11:38 10.73742 79.65647 17825 ft 427 kts 275°
2026-04-14 11:38 10.73954 79.62640 17093 ft 425 kts 275°
2026-04-14 11:39 10.74171 79.59647 16379 ft 423 kts 275°
2026-04-14 11:39 10.74376 79.56715 15687 ft 420 kts 275°
2026-04-14 11:39 10.74574 79.53762 15006 ft 417 kts 275°
2026-04-14 11:39 10.74766 79.50827 14336 ft 414 kts 275°
2026-04-14 11:40 10.74953 79.47916 13680 ft 409 kts 275°
2026-04-14 11:40 10.75134 79.45071 12952 ft 397 kts 275°
2026-04-14 11:40 10.75309 79.42306 12234 ft 387 kts 275°
2026-04-14 11:40 10.75480 79.39607 11535 ft 377 kts 275°
2026-04-14 11:41 10.75648 79.36973 10851 ft 369 kts 275°
2026-04-14 11:41 10.75812 79.34395 10190 ft 362 kts 275°
2026-04-14 11:41 10.75970 79.31880 9656 ft 350 kts 275°
2026-04-14 11:41 10.76124 79.29446 9083 ft 340 kts 275°
2026-04-14 11:42 10.76275 79.27075 8507 ft 332 kts 275°
2026-04-14 11:42 10.76421 79.24762 7929 ft 325 kts 275°
2026-04-14 11:42 10.76566 79.22489 7331 ft 320 kts 275°
2026-04-14 11:42 10.76708 79.20243 6701 ft 317 kts 275°
2026-04-14 11:43 10.76850 79.18019 6072 ft 314 kts 274°
2026-04-14 11:43 10.76989 79.15810 5426 ft 312 kts 274°
2026-04-14 11:43 10.77129 79.13621 4786 ft 309 kts 274°
2026-04-14 11:43 10.77268 79.11450 4125 ft 307 kts 273°
2026-04-14 11:44 10.77404 79.09285 3435 ft 306 kts 273°
2026-04-14 11:44 10.77539 79.07131 2819 ft 303 kts 273°
2026-04-14 11:44 10.77671 79.05014 2394 ft 294 kts 273°
2026-04-14 11:44 10.77795 79.03036 2289 ft 274 kts 273°
2026-04-14 11:45 10.77911 79.01170 2190 ft 256 kts 273°
2026-04-14 11:45 10.78019 78.99422 2075 ft 238 kts 274°
2026-04-14 11:45 10.78120 78.97803 2001 ft 220 kts 273°
2026-04-14 11:45 10.78214 78.96297 2008 ft 215 kts 272°
2026-04-14 11:46 10.78307 78.94775 1997 ft 211 kts 272°
2026-04-14 11:46 10.78398 78.93314 2007 ft 199 kts 272°
2026-04-14 11:46 10.78369 78.91986 1999 ft 180 kts 262°
2026-04-14 11:46 10.78243 78.90697 1996 ft 186 kts 263°
2026-04-14 11:47 10.78136 78.89383 2003 ft 187 kts 263°
2026-04-14 11:47 10.78039 78.88133 1989 ft 172 kts 263°
2026-04-14 11:47 10.77936 78.86924 1993 ft 169 kts 263°
2026-04-14 11:47 10.77832 78.85720 2000 ft 171 kts 263°
2026-04-14 11:48 10.77730 78.84532 2003 ft 167 kts 263°
2026-04-14 11:48 10.77631 78.83386 2007 ft 162 kts 264°
2026-04-14 11:48 10.77533 78.82254 1982 ft 160 kts 264°
2026-04-14 11:48 10.77433 78.81092 1801 ft 165 kts 264°
2026-04-14 11:49 10.77336 78.79962 1583 ft 157 kts 264°
2026-04-14 11:49 10.77241 78.78852 1398 ft 160 kts 263°
2026-04-14 11:49 10.77142 78.77719 1183 ft 157 kts 265°
2026-04-14 11:49 10.77048 78.76619 1010 ft 158 kts 263°
2026-04-14 11:50 10.76955 78.75519 819 ft 155 kts 266°
2026-04-14 11:50 10.76862 78.74462 610 ft 150 kts 266°
2026-04-14 11:50 10.76769 78.73376 408 ft 158 kts 265°
2026-04-14 11:51 10.76604 78.71466 296 ft 72 kts 264°
2026-04-14 11:51 10.76581 78.71203 298 ft 32 kts 264°
2026-04-14 11:51 10.76561 78.70974 301 ft 31 kts 265°
2026-04-14 11:51 10.76505 78.70888 302 ft 15 kts 198°
2026-04-14 11:52 10.76394 78.70864 301 ft 11 kts 174°
2026-04-14 11:52 10.76352 78.70878 301 ft 8 kts 156°
2026-04-14 11:52 10.76291 78.70914 304 ft 12 kts 150°
2026-04-14 11:52 10.76209 78.70963 301 ft 16 kts 150°
2026-04-14 11:53 10.76141 78.71004 301 ft 2 kts 150°
2026-04-14 11:53 10.76125 78.71000 300 ft 3 kts 198°
2026-04-14 11:53 10.76110 78.70977 301 ft 6 kts 236°
2026-04-14 11:53 10.76092 78.70948 301 ft 0 kts 246°
2026-04-14 11:54 10.76090 78.70945 302 ft 0 kts 238°